Weather History for Caldwell, ID

Change the Weather History Date:

Sunday, November 4, 2012

  Actual Average (KBOI) Record (KBOI)
Temperature  
Mean Temperature 48 °F 45 °F  
Max Temperature 62 °F 55 °F 73 °F (1975)
Min Temperature 35 °F 36 °F 8 °F (1935)
Degree Days  
Heating Degree Days 16 20  
Month to date heating degree days 78  
Since 1 July heating degree days 584  
Cooling Degree Days 0 0  
Month to date cooling degree days 0  
Year to date cooling degree days 942  
Moisture  
Dew Point 36 °F    
Average Humidity 65    
Maximum Humidity 81    
Minimum Humidity 42    
Precipitation  
Precipitation 0.00 in 0.04 in 0.50 in (1963)
Month to date precipitation 0.15  
Year to date precipitation 8.98  
Snow  
Snow 0.00 in 0.00 in T in (2008)
Month to date snowfall 0.1  
Since 1 July snowfall 0.2  
Snow Depth -    
Sea Level Pressure  
Sea Level Pressure 30.35 in    
Wind  
Wind Speed 1 mph (North)    
Max Wind Speed 7 mph    
Max Gust Speed -    
Visibility 10 miles    
Events      
T = Trace of Precipitation, MM = Missing Value Source: NWS Daily Summary

Daily Weather History Graph

Daily Weather History Graph

Search for Another Location

Airport:

Trip Planner

Search our weather history database for the weather conditions in past years. The results will help you decide how hot, cold, wet, or windy it might be!

Date:

Astronomy

Nov. 04, 2012 Rise Set
Actual Time 7:26 AM MST 5:32 PM MST
Civil Twilight 6:56 AM MST 6:02 PM MST
Nautical Twilight 6:22 AM MST 6:36 PM MST
Astronomical Twilight 5:49 AM MST 7:10 PM MST
Moon 10:13 PM MST (11/4) 12:15 PM MST (11/4)
Length of Visible Light 11h 05m
Length of Day
10h 05m
Waning Gibbous, 71% of the Moon is Illuminated
Nov 4
Waning Gibbous
Nov 6
Last Quarter
Nov 13
New
Nov 20
First Quarter
Nov 28
Full

Hourly Weather History & Observations

Time (MST) Temp. Windchill Dew Point Humidity Pressure Visibility Wind Dir Wind Speed Gust Speed Precip Events Conditions
12:15 AM 46.4 °F - 35.6 °F 66% 30.24 in 10.0 mi Calm Calm - N/A   Clear
12:35 AM 44.6 °F 43.1 °F 35.6 °F 71% 30.24 in 10.0 mi WSW 3.5 mph - N/A   Clear
12:55 AM 44.6 °F - 35.6 °F 71% 30.25 in 10.0 mi Calm Calm - N/A   Clear
1:15 AM 44.6 °F - 35.6 °F 71% 30.26 in 10.0 mi Calm Calm - N/A   Clear
1:35 AM 44.6 °F - 35.6 °F 71% 30.26 in 10.0 mi Calm Calm - N/A   Clear
1:55 AM 44.6 °F - 35.6 °F 71% 30.27 in 10.0 mi Calm Calm - N/A   Clear
1:15 AM 42.8 °F - 35.6 °F 76% 30.27 in 10.0 mi Calm Calm - N/A   Clear
1:35 AM 42.8 °F - 35.6 °F 76% 30.27 in 10.0 mi Calm Calm - N/A   Clear
1:55 AM 42.8 °F 41.1 °F 35.6 °F 76% 30.27 in 10.0 mi SW 3.5 mph - N/A   Clear
2:15 AM 42.8 °F - 35.6 °F 76% 30.28 in 10.0 mi Calm Calm - N/A   Clear
2:35 AM 41.0 °F - 33.8 °F 76% 30.29 in 10.0 mi Calm Calm - N/A   Clear
2:55 AM 39.2 °F - 33.8 °F 81% 30.29 in 10.0 mi Calm Calm - N/A   Clear
3:15 AM 39.2 °F - 32.0 °F 75% 30.29 in 10.0 mi Calm Calm - N/A   Clear
3:35 AM 37.4 °F - 30.2 °F 75% 30.29 in 10.0 mi Calm Calm - N/A   Clear
3:55 AM 39.2 °F - 33.8 °F 81% 30.29 in 8.0 mi Calm Calm - N/A   Clear
4:35 AM 37.4 °F - 32.0 °F 81% 30.30 in 7.0 mi Calm Calm - N/A   Clear
4:55 AM 37.4 °F - 30.2 °F 75% 30.30 in 5.0 mi Calm Calm - N/A   Partly Cloudy
5:15 AM 37.4 °F - 30.2 °F 75% 30.30 in 4.0 mi Calm Calm - N/A   Scattered Clouds
5:35 AM 37.4 °F - 30.2 °F 75% 30.30 in 5.0 mi Calm Calm - N/A   Mostly Cloudy
5:55 AM 37.4 °F - 32.0 °F 81% 30.31 in 6.0 mi Calm Calm - N/A   Overcast
6:15 AM 37.4 °F - 32.0 °F 81% 30.30 in 7.0 mi Calm Calm - N/A   Overcast
6:35 AM 37.4 °F - 32.0 °F 81% 30.31 in 10.0 mi Calm Calm - N/A   Overcast
6:55 AM 37.4 °F 32.8 °F 30.2 °F 75% 30.31 in 10.0 mi ENE 5.8 mph - N/A   Mostly Cloudy
7:15 AM 37.4 °F 33.8 °F 30.2 °F 75% 30.32 in 10.0 mi East 4.6 mph - N/A   Partly Cloudy
7:35 AM 35.6 °F 32.8 °F 28.4 °F 75% 30.33 in 8.0 mi ESE 3.5 mph - N/A   Clear
8:15 AM 37.4 °F - 32.0 °F 81% 30.36 in 7.0 mi Calm Calm - N/A   Overcast
8:35 AM 37.4 °F - 30.2 °F 75% 30.38 in 10.0 mi Calm Calm - N/A   Scattered Clouds
8:55 AM 39.2 °F - 32.0 °F 75% 30.38 in 10.0 mi Calm Calm - N/A   Mostly Cloudy
9:15 AM 42.8 °F - 33.8 °F 70% 30.39 in 10.0 mi Calm Calm - N/A   Overcast
9:35 AM 42.8 °F - 35.6 °F 76% 30.39 in 10.0 mi Calm Calm - N/A   Overcast
9:55 AM 44.6 °F - 37.4 °F 76% 30.40 in 10.0 mi Calm Calm - N/A   Overcast
10:15 AM 48.2 °F - 37.4 °F 66% 30.40 in 10.0 mi Calm Calm - N/A   Mostly Cloudy
10:35 AM 51.8 °F - 39.2 °F 62% 30.40 in 10.0 mi Calm Calm - N/A   Mostly Cloudy
10:55 AM 51.8 °F - 39.2 °F 62% 30.41 in 10.0 mi Calm Calm - N/A   Overcast
11:15 AM 51.8 °F - 39.2 °F 62% 30.41 in 10.0 mi NNW 4.6 mph - N/A   Overcast
11:35 AM 53.6 °F - 39.2 °F 58% 30.42 in 10.0 mi North 4.6 mph - N/A   Overcast
11:55 AM 55.4 °F - 39.2 °F 54% 30.41 in 10.0 mi North 5.8 mph - N/A   Overcast
12:15 PM 55.4 °F - 39.2 °F 54% 30.40 in 10.0 mi NNW 3.5 mph - N/A   Mostly Cloudy
12:35 PM 57.2 °F - 41.0 °F 55% 30.40 in 10.0 mi NNE 4.6 mph - N/A   Overcast
12:55 PM 60.8 °F - 41.0 °F 48% 30.39 in 10.0 mi North 4.6 mph - N/A   Mostly Cloudy
1:15 PM 60.8 °F - 41.0 °F 48% 30.38 in 10.0 mi Calm Calm - N/A   Partly Cloudy
1:35 PM 62.6 °F - 41.0 °F 45% 30.38 in 10.0 mi North 6.9 mph - N/A   Clear
1:55 PM 62.6 °F - 41.0 °F 45% 30.38 in 10.0 mi North 5.8 mph - N/A   Clear
2:15 PM 62.6 °F - 42.8 °F 48% 30.38 in 10.0 mi NNW 5.8 mph - N/A   Clear
2:35 PM 62.6 °F - 41.0 °F 45% 30.37 in 10.0 mi NNW 6.9 mph - N/A   Clear
2:55 PM 62.6 °F - 39.2 °F 42% 30.37 in 10.0 mi NNW 6.9 mph - N/A   Clear
3:15 PM 62.6 °F - 41.0 °F 45% 30.37 in 10.0 mi North 5.8 mph - N/A   Clear
3:55 PM 62.6 °F - 39.2 °F 42% 30.37 in 10.0 mi North 4.6 mph - N/A   Clear
4:15 PM 62.6 °F - 39.2 °F 42% 30.38 in 10.0 mi NNW 4.6 mph - N/A   Clear
4:35 PM 60.8 °F - 39.2 °F 45% 30.38 in 9.0 mi NNW 3.5 mph - N/A   Clear
4:55 PM 60.8 °F - 39.2 °F 45% 30.38 in 10.0 mi North 5.8 mph - N/A   Clear
5:15 PM 59.0 °F - 39.2 °F 48% 30.38 in 10.0 mi North 4.6 mph - N/A   Clear
5:35 PM 57.2 °F - 39.2 °F 51% 30.38 in 10.0 mi NNW 3.5 mph - N/A   Clear
5:55 PM 55.4 °F - 39.2 °F 54% 30.38 in 10.0 mi NW 5.8 mph - N/A   Clear
6:15 PM 55.4 °F - 39.2 °F 54% 30.39 in 10.0 mi NW 4.6 mph - N/A   Clear
6:35 PM 53.6 °F - 37.4 °F 54% 30.39 in 10.0 mi Calm Calm - N/A   Clear
6:56 PM 53.6 °F - 37.4 °F 54% 30.40 in 10.0 mi Calm Calm - N/A   Clear
7:15 PM 51.8 °F - 37.4 °F 58% 30.40 in 10.0 mi Calm Calm - N/A   Clear
7:35 PM 51.8 °F - 39.2 °F 62% 30.40 in 10.0 mi Calm Calm - N/A   Clear
7:55 PM 51.8 °F - 37.4 °F 58% 30.40 in 10.0 mi Calm Calm - N/A   Clear
8:15 PM 48.2 °F - 37.4 °F 66% 30.40 in 10.0 mi Calm Calm - N/A   Clear
8:35 PM 48.2 °F - 37.4 °F 66% 30.40 in 10.0 mi Calm Calm - N/A   Clear
8:55 PM 46.4 °F - 37.4 °F 71% 30.41 in 10.0 mi Calm Calm - N/A   Clear
9:15 PM 48.2 °F - 37.4 °F 66% 30.41 in 10.0 mi Calm Calm - N/A   Clear
9:35 PM 46.4 °F - 37.4 °F 71% 30.41 in 10.0 mi Calm Calm - N/A   Clear
10:15 PM 44.6 °F - 35.6 °F 71% 30.41 in 10.0 mi Calm Calm - N/A   Clear
10:35 PM 44.6 °F 42.2 °F 35.6 °F 71% 30.41 in 10.0 mi SSE 4.6 mph - N/A   Clear
10:55 PM 42.8 °F 41.1 °F 35.6 °F 76% 30.41 in 10.0 mi SSE 3.5 mph - N/A   Clear